Torna al catalogo

IRIS-F3

AttivoComunicazioniSSO
NORAD 62619·PAYLOAD·🇹🇼 Taiwan

Lanciato Jan 14, 2025 da Vandenberg Space Force Base

Loading…

Prossimi Passaggi (prossime 24 ore)

TLE

AggiornatoSource: Space-Track

Epoca: Sep 14, 2026, 12:46 UTC

1 62619U 25009L   26257.53215318  .00007013  00000-0  25757-3 0  9990
2 62619  97.3995 337.7252 0006346  23.2270 336.9255 15.28224108 92469

Traccia IRIS-F3 in tempo reale con AllMySat

Download on the App Store